Year,Month,Day,Hour,Minute,Value (Times are PST for temperature in C)
2012,04,22,00,00,7.30
2012,04,22,00,01,7.30
2012,04,22,00,02,7.30
2012,04,22,00,03,7.20
2012,04,22,00,04,7.20
2012,04,22,00,05,7.20
2012,04,22,00,06,7.20
2012,04,22,00,07,7.20
2012,04,22,00,08,7.20
2012,04,22,00,09,7.20
2012,04,22,00,10,7.20
2012,04,22,00,11,7.20
2012,04,22,00,12,7.20
2012,04,22,00,13,7.20
2012,04,22,00,14,7.20
2012,04,22,00,15,7.20
2012,04,22,00,16,7.20
2012,04,22,00,17,7.30
2012,04,22,00,18,7.30
2012,04,22,00,19,7.30
2012,04,22,00,20,7.30
2012,04,22,00,21,7.30
2012,04,22,00,22,7.30
2012,04,22,00,23,7.30
2012,04,22,00,24,7.30
2012,04,22,00,25,7.30
2012,04,22,00,26,7.30
2012,04,22,00,27,7.30
2012,04,22,00,28,7.30
2012,04,22,00,29,7.30
2012,04,22,00,30,7.30
2012,04,22,00,31,7.30
2012,04,22,00,32,7.30
2012,04,22,00,33,7.30
2012,04,22,00,34,7.30
2012,04,22,00,35,7.30
2012,04,22,00,36,7.30
2012,04,22,00,37,7.30
2012,04,22,00,38,7.30
2012,04,22,00,39,7.30
2012,04,22,00,40,7.30
2012,04,22,00,41,7.30
2012,04,22,00,42,7.30
2012,04,22,00,43,7.30
2012,04,22,00,44,7.30
2012,04,22,00,45,7.40
2012,04,22,00,46,7.40
2012,04,22,00,47,7.40
2012,04,22,00,48,7.40
2012,04,22,00,49,7.40
2012,04,22,00,50,7.40
2012,04,22,00,51,7.40
2012,04,22,00,52,7.40
2012,04,22,00,53,7.40
2012,04,22,00,54,7.40
2012,04,22,00,55,7.40
2012,04,22,00,56,7.40
2012,04,22,00,57,7.40
2012,04,22,00,58,7.40
2012,04,22,00,59,7.40
2012,04,22,01,00,7.40
2012,04,22,01,01,7.40
2012,04,22,01,02,7.40
2012,04,22,01,03,7.40
2012,04,22,01,04,7.40
2012,04,22,01,05,7.40
2012,04,22,01,06,7.40
2012,04,22,01,07,7.40
2012,04,22,01,08,7.40
2012,04,22,01,09,7.40
2012,04,22,01,10,7.40
2012,04,22,01,11,7.40
2012,04,22,01,12,7.40
2012,04,22,01,13,7.40
2012,04,22,01,14,7.40
2012,04,22,01,15,7.40
2012,04,22,01,16,7.40
2012,04,22,01,17,7.40
2012,04,22,01,18,7.40
2012,04,22,01,19,7.40
2012,04,22,01,20,7.40
2012,04,22,01,21,7.40
2012,04,22,01,22,7.40
2012,04,22,01,23,7.40
2012,04,22,01,24,7.40
2012,04,22,01,25,7.30
2012,04,22,01,26,7.30
2012,04,22,01,27,7.30
2012,04,22,01,28,7.30
2012,04,22,01,29,7.30
2012,04,22,01,30,7.30
2012,04,22,01,31,7.30
2012,04,22,01,32,7.30
2012,04,22,01,33,7.30
2012,04,22,01,34,7.30
2012,04,22,01,35,7.20
2012,04,22,01,36,7.20
2012,04,22,01,37,7.20
2012,04,22,01,38,7.20
2012,04,22,01,39,7.20
2012,04,22,01,40,7.10
2012,04,22,01,41,7.10
2012,04,22,01,42,7.10
2012,04,22,01,43,7.00
2012,04,22,01,44,7.00
2012,04,22,01,45,7.00
2012,04,22,01,46,6.90
2012,04,22,01,47,6.90
2012,04,22,01,48,6.90
2012,04,22,01,49,6.90
2012,04,22,01,50,6.90
2012,04,22,01,51,6.90
2012,04,22,01,52,6.80
2012,04,22,01,53,6.80
2012,04,22,01,54,6.80
2012,04,22,01,55,6.80
2012,04,22,01,56,6.80
2012,04,22,01,57,6.80
2012,04,22,01,58,6.80
2012,04,22,01,59,6.80
2012,04,22,02,00,6.80
2012,04,22,02,01,6.80
2012,04,22,02,02,6.80
2012,04,22,02,03,6.80
2012,04,22,02,04,6.80
2012,04,22,02,05,6.80
2012,04,22,02,06,6.80
2012,04,22,02,07,6.80
2012,04,22,02,08,6.80
2012,04,22,02,09,6.80
2012,04,22,02,10,6.80
2012,04,22,02,11,6.80
2012,04,22,02,12,6.80
2012,04,22,02,13,6.80
2012,04,22,02,14,6.80
2012,04,22,02,15,6.80
2012,04,22,02,16,6.80
2012,04,22,02,17,6.80
2012,04,22,02,18,6.80
2012,04,22,02,19,6.80
2012,04,22,02,20,6.70
2012,04,22,02,21,6.70
2012,04,22,02,22,6.70
2012,04,22,02,23,6.70
2012,04,22,02,24,6.70
2012,04,22,02,25,6.70
2012,04,22,02,26,6.70
2012,04,22,02,27,6.70
2012,04,22,02,28,6.70
2012,04,22,02,29,6.70
2012,04,22,02,30,6.70
2012,04,22,02,31,6.70
2012,04,22,02,32,6.70
2012,04,22,02,33,6.70
2012,04,22,02,34,6.70
2012,04,22,02,35,6.70
2012,04,22,02,36,6.70
2012,04,22,02,37,6.70
2012,04,22,02,38,6.70
2012,04,22,02,39,6.70
2012,04,22,02,40,6.70
2012,04,22,02,41,6.70
2012,04,22,02,42,6.70
2012,04,22,02,43,6.70
2012,04,22,02,44,6.70
2012,04,22,02,45,6.70
2012,04,22,02,46,6.70
2012,04,22,02,47,6.60
2012,04,22,02,48,6.60
2012,04,22,02,49,6.60
2012,04,22,02,50,6.60
2012,04,22,02,51,6.60
2012,04,22,02,52,6.60
2012,04,22,02,53,6.60
2012,04,22,02,54,6.60
2012,04,22,02,55,6.70
2012,04,22,02,56,6.70
2012,04,22,02,57,6.70
2012,04,22,02,58,6.70
2012,04,22,02,59,6.70
2012,04,22,03,00,6.70
2012,04,22,03,01,6.70
2012,04,22,03,02,6.70
2012,04,22,03,03,6.70
2012,04,22,03,04,6.70
2012,04,22,03,05,6.70
2012,04,22,03,06,6.70
2012,04,22,03,07,6.70
2012,04,22,03,08,6.70
2012,04,22,03,09,6.70
2012,04,22,03,10,6.70
2012,04,22,03,11,6.70
2012,04,22,03,12,6.70
2012,04,22,03,13,6.70
2012,04,22,03,14,6.70
2012,04,22,03,15,6.70
2012,04,22,03,16,6.80
2012,04,22,03,17,6.80
2012,04,22,03,18,6.80
2012,04,22,03,19,6.80
2012,04,22,03,20,6.80
2012,04,22,03,21,6.80
2012,04,22,03,22,6.80
2012,04,22,03,23,6.80
2012,04,22,03,24,6.80
2012,04,22,03,25,6.80
2012,04,22,03,26,6.80
2012,04,22,03,27,6.80
2012,04,22,03,28,6.80
2012,04,22,03,29,6.80
2012,04,22,03,30,6.80
2012,04,22,03,31,6.80
2012,04,22,03,32,6.80
2012,04,22,03,33,6.80
2012,04,22,03,34,6.80
2012,04,22,03,35,6.80
2012,04,22,03,36,6.90
2012,04,22,03,37,6.80
2012,04,22,03,38,6.90
2012,04,22,03,39,6.90
2012,04,22,03,40,6.90
2012,04,22,03,41,6.80
2012,04,22,03,42,6.90
2012,04,22,03,43,6.90
2012,04,22,03,44,6.90
2012,04,22,03,45,6.90
2012,04,22,03,46,6.90
2012,04,22,03,47,6.90
2012,04,22,03,48,6.90
2012,04,22,03,49,6.90
2012,04,22,03,50,6.90
2012,04,22,03,51,6.90
2012,04,22,03,52,7.00
2012,04,22,03,53,7.00
2012,04,22,03,54,7.00
2012,04,22,03,55,6.90
2012,04,22,03,56,7.00
2012,04,22,03,57,7.00
2012,04,22,03,58,7.00
2012,04,22,03,59,7.00
2012,04,22,04,00,7.00
2012,04,22,04,01,7.10
2012,04,22,04,02,7.10
2012,04,22,04,03,7.10
2012,04,22,04,04,7.10
2012,04,22,04,05,7.10
2012,04,22,04,06,7.10
2012,04,22,04,07,7.10
2012,04,22,04,08,7.20
2012,04,22,04,09,7.20
2012,04,22,04,10,7.20
2012,04,22,04,11,7.20
2012,04,22,04,12,7.20
2012,04,22,04,13,7.20
2012,04,22,04,14,7.20
2012,04,22,04,15,7.20
2012,04,22,04,16,7.20
2012,04,22,04,17,7.20
2012,04,22,04,18,7.20
2012,04,22,04,19,7.20
2012,04,22,04,20,7.20
2012,04,22,04,21,7.20
2012,04,22,04,22,7.20
2012,04,22,04,23,7.20
2012,04,22,04,24,7.20
2012,04,22,04,25,7.20
2012,04,22,04,26,7.20
2012,04,22,04,27,7.20
2012,04,22,04,28,7.20
2012,04,22,04,29,7.20
2012,04,22,04,30,7.20
2012,04,22,04,31,7.20
2012,04,22,04,32,7.20
2012,04,22,04,33,7.20
2012,04,22,04,34,7.20
2012,04,22,04,35,7.20
2012,04,22,04,36,7.20
2012,04,22,04,37,7.20
2012,04,22,04,38,7.30
2012,04,22,04,39,7.30
2012,04,22,04,40,7.30
2012,04,22,04,41,7.30
2012,04,22,04,42,7.30
2012,04,22,04,43,7.30
2012,04,22,04,44,7.20
2012,04,22,04,45,7.30
2012,04,22,04,46,7.30
2012,04,22,04,47,7.30
2012,04,22,04,48,7.30
2012,04,22,04,49,7.30
2012,04,22,04,50,7.30
2012,04,22,04,51,7.30
2012,04,22,04,52,7.30
2012,04,22,04,53,7.20
2012,04,22,04,54,7.20
2012,04,22,04,55,7.20
2012,04,22,04,56,7.20
2012,04,22,04,57,7.20
2012,04,22,04,58,7.20
2012,04,22,04,59,7.20
2012,04,22,05,00,7.20
2012,04,22,05,01,7.20
2012,04,22,05,02,7.20
2012,04,22,05,03,7.20
2012,04,22,05,04,7.20
2012,04,22,05,05,7.20
2012,04,22,05,06,7.20
2012,04,22,05,07,7.20
2012,04,22,05,08,7.20
2012,04,22,05,09,7.20
2012,04,22,05,10,7.20
2012,04,22,05,11,7.20
2012,04,22,05,12,7.20
2012,04,22,05,13,7.20
2012,04,22,05,14,7.10
2012,04,22,05,15,7.10
2012,04,22,05,16,7.10
2012,04,22,05,17,7.10
2012,04,22,05,18,7.10
2012,04,22,05,19,7.10
2012,04,22,05,20,7.10
2012,04,22,05,21,7.10
2012,04,22,05,22,7.10
2012,04,22,05,23,7.10
2012,04,22,05,24,7.10
2012,04,22,05,25,7.00
2012,04,22,05,26,7.00
2012,04,22,05,27,7.00
2012,04,22,05,28,7.00
2012,04,22,05,29,6.90
2012,04,22,05,30,6.90
2012,04,22,05,31,6.90
2012,04,22,05,32,6.90
2012,04,22,05,33,6.90
2012,04,22,05,34,6.90
2012,04,22,05,35,6.90
2012,04,22,05,36,6.90
2012,04,22,05,37,6.90
2012,04,22,05,38,6.90
2012,04,22,05,39,6.90
2012,04,22,05,40,6.90
2012,04,22,05,41,6.80
2012,04,22,05,42,6.80
2012,04,22,05,43,6.80
2012,04,22,05,44,6.80
2012,04,22,05,45,6.80
2012,04,22,05,46,6.80
2012,04,22,05,47,6.80
2012,04,22,05,48,6.80
2012,04,22,05,49,6.80
2012,04,22,05,50,6.70
2012,04,22,05,51,6.70
2012,04,22,05,52,6.70
2012,04,22,05,53,6.70
2012,04,22,05,54,6.70
2012,04,22,05,55,6.70
2012,04,22,05,56,6.70
2012,04,22,05,57,6.70
2012,04,22,05,58,6.70
2012,04,22,05,59,6.70
2012,04,22,06,00,6.70
2012,04,22,06,01,6.70
2012,04,22,06,02,6.70
2012,04,22,06,03,6.70
2012,04,22,06,04,6.70
2012,04,22,06,05,6.70
2012,04,22,06,06,6.70
2012,04,22,06,07,6.70
2012,04,22,06,08,6.70
2012,04,22,06,09,6.70
2012,04,22,06,10,6.70
2012,04,22,06,11,6.70
2012,04,22,06,12,6.60
2012,04,22,06,13,6.60
2012,04,22,06,14,6.60
2012,04,22,06,15,6.70
2012,04,22,06,16,6.70
2012,04,22,06,17,6.70
2012,04,22,06,18,6.70
2012,04,22,06,19,6.70
2012,04,22,06,20,6.70
2012,04,22,06,21,6.70
2012,04,22,06,22,6.70
2012,04,22,06,23,6.70
2012,04,22,06,24,6.70
2012,04,22,06,25,6.70
2012,04,22,06,26,6.70
2012,04,22,06,27,6.70
2012,04,22,06,28,6.70
2012,04,22,06,29,6.70
2012,04,22,06,30,6.70
2012,04,22,06,31,6.70
2012,04,22,06,32,6.70
2012,04,22,06,33,6.70
2012,04,22,06,34,6.70
2012,04,22,06,35,6.80
2012,04,22,06,36,6.80
2012,04,22,06,37,6.80
2012,04,22,06,38,6.80
2012,04,22,06,39,6.80
2012,04,22,06,40,6.80
2012,04,22,06,41,6.80
2012,04,22,06,42,6.80
2012,04,22,06,43,6.80
2012,04,22,06,44,6.80
2012,04,22,06,45,6.80
2012,04,22,06,46,6.80
2012,04,22,06,47,6.80
2012,04,22,06,48,6.80
2012,04,22,06,49,6.90
2012,04,22,06,50,6.90
2012,04,22,06,51,6.90
2012,04,22,06,52,6.90
2012,04,22,06,53,6.90
2012,04,22,06,54,6.90
2012,04,22,06,55,6.90
2012,04,22,06,56,6.90
2012,04,22,06,57,6.90
2012,04,22,06,58,6.90
2012,04,22,06,59,6.90
2012,04,22,07,00,6.90
2012,04,22,07,01,6.90
2012,04,22,07,02,6.90
2012,04,22,07,03,6.90
2012,04,22,07,04,7.00
2012,04,22,07,05,7.00
2012,04,22,07,06,7.00
2012,04,22,07,07,7.00
2012,04,22,07,08,7.10
2012,04,22,07,09,7.10
2012,04,22,07,10,7.10
2012,04,22,07,11,7.10
2012,04,22,07,12,7.10
2012,04,22,07,13,7.10
2012,04,22,07,14,7.10
2012,04,22,07,15,7.10
2012,04,22,07,16,7.10
2012,04,22,07,17,7.20
2012,04,22,07,18,7.20
2012,04,22,07,19,7.20
2012,04,22,07,20,7.20
2012,04,22,07,21,7.20
2012,04,22,07,22,7.20
2012,04,22,07,23,7.30
2012,04,22,07,24,7.30
2012,04,22,07,25,7.30
2012,04,22,07,26,7.30
2012,04,22,07,27,7.30
2012,04,22,07,28,7.40
2012,04,22,07,29,7.40
2012,04,22,07,30,7.40
2012,04,22,07,31,7.50
2012,04,22,07,32,7.50
2012,04,22,07,33,7.60
2012,04,22,07,34,7.60
2012,04,22,07,35,7.60
2012,04,22,07,36,7.60
2012,04,22,07,37,7.70
2012,04,22,07,38,7.70
2012,04,22,07,39,7.70
2012,04,22,07,40,7.80
2012,04,22,07,41,7.80
2012,04,22,07,42,7.80
2012,04,22,07,43,7.80
2012,04,22,07,44,7.90
2012,04,22,07,45,7.90
2012,04,22,07,46,7.90
2012,04,22,07,47,7.90
2012,04,22,07,48,8.00
2012,04,22,07,49,8.00
2012,04,22,07,50,8.10
2012,04,22,07,51,8.10
2012,04,22,07,52,8.20
2012,04,22,07,53,8.20
2012,04,22,07,54,8.20
2012,04,22,07,55,8.20
2012,04,22,07,56,8.30
2012,04,22,07,57,8.30
2012,04,22,07,58,8.30
2012,04,22,07,59,8.30
2012,04,22,08,00,8.30
2012,04,22,08,01,8.40
2012,04,22,08,02,8.40
2012,04,22,08,03,8.40
2012,04,22,08,04,8.40
2012,04,22,08,05,8.50
2012,04,22,08,06,8.50
2012,04,22,08,07,8.60
2012,04,22,08,08,8.60
2012,04,22,08,09,8.70
2012,04,22,08,10,8.70
2012,04,22,08,11,8.70
2012,04,22,08,12,8.70
2012,04,22,08,13,8.80
2012,04,22,08,14,8.80
2012,04,22,08,15,8.80
2012,04,22,08,16,8.80
2012,04,22,08,17,8.90
2012,04,22,08,18,8.90
2012,04,22,08,19,8.90
2012,04,22,08,20,8.90
2012,04,22,08,21,9.00
2012,04,22,08,22,9.00
2012,04,22,08,23,9.00
2012,04,22,08,24,9.00
2012,04,22,08,25,9.00
2012,04,22,08,26,9.00
2012,04,22,08,27,9.10
2012,04,22,08,28,9.10
2012,04,22,08,29,9.10
2012,04,22,08,30,9.10
2012,04,22,08,31,9.10
2012,04,22,08,32,9.10
2012,04,22,08,33,9.10
2012,04,22,08,34,9.10
2012,04,22,08,35,9.10
2012,04,22,08,36,9.20
2012,04,22,08,37,9.20
2012,04,22,08,38,9.20
2012,04,22,08,39,9.20
2012,04,22,08,40,9.30
2012,04,22,08,41,9.30
2012,04,22,08,42,9.30
2012,04,22,08,43,9.30
2012,04,22,08,44,9.30
2012,04,22,08,45,9.40
2012,04,22,08,46,9.40
2012,04,22,08,47,9.40
2012,04,22,08,48,9.40
2012,04,22,08,49,9.50
2012,04,22,08,50,9.50
2012,04,22,08,51,9.60
2012,04,22,08,52,9.60
2012,04,22,08,53,9.60
2012,04,22,08,54,9.60
2012,04,22,08,55,9.70
2012,04,22,08,56,9.70
2012,04,22,08,57,9.70
2012,04,22,08,58,9.80
2012,04,22,08,59,9.80
2012,04,22,09,00,9.80
2012,04,22,09,01,9.80
2012,04,22,09,02,9.90
2012,04,22,09,03,9.90
2012,04,22,09,04,9.90
2012,04,22,09,05,10.00
2012,04,22,09,06,10.00
2012,04,22,09,07,10.10
2012,04,22,09,08,10.10
2012,04,22,09,09,10.10
2012,04,22,09,10,10.20
2012,04,22,09,11,10.20
2012,04,22,09,12,10.20
2012,04,22,09,13,10.20
2012,04,22,09,14,10.30
2012,04,22,09,15,10.30
2012,04,22,09,16,10.40
2012,04,22,09,17,10.40
2012,04,22,09,18,10.50
2012,04,22,09,19,10.50
2012,04,22,09,20,10.50
2012,04,22,09,21,10.50
2012,04,22,09,22,10.60
2012,04,22,09,23,10.60
2012,04,22,09,24,10.60
2012,04,22,09,25,10.60
2012,04,22,09,26,10.70
2012,04,22,09,27,10.70
2012,04,22,09,28,10.80
2012,04,22,09,29,10.80
2012,04,22,09,30,10.90
2012,04,22,09,31,10.90
2012,04,22,09,32,11.00
2012,04,22,09,33,11.00
2012,04,22,09,34,11.10
2012,04,22,09,35,11.10
2012,04,22,09,36,11.20
2012,04,22,09,37,11.20
2012,04,22,09,38,11.20
2012,04,22,09,39,11.20
2012,04,22,09,40,11.20
2012,04,22,09,41,11.20
2012,04,22,09,42,11.20
2012,04,22,09,43,11.30
2012,04,22,09,44,11.30
2012,04,22,09,45,11.30
2012,04,22,09,46,11.30
2012,04,22,09,47,11.30
2012,04,22,09,48,11.30
2012,04,22,09,49,11.30
2012,04,22,09,50,11.30
2012,04,22,09,51,11.40
2012,04,22,09,52,11.40
2012,04,22,09,53,11.40
2012,04,22,09,54,11.40
2012,04,22,09,55,11.30
2012,04,22,09,56,11.40
2012,04,22,09,57,11.40
2012,04,22,09,58,11.40
2012,04,22,09,59,11.40
2012,04,22,10,00,11.40
2012,04,22,10,01,11.40
2012,04,22,10,02,11.40
2012,04,22,10,03,11.50
2012,04,22,10,04,11.50
2012,04,22,10,05,11.50
2012,04,22,10,06,11.60
2012,04,22,10,07,11.60
2012,04,22,10,08,11.60
2012,04,22,10,09,11.60
2012,04,22,10,10,11.70
2012,04,22,10,11,11.70
2012,04,22,10,12,11.80
2012,04,22,10,13,11.80
2012,04,22,10,14,11.80
2012,04,22,10,15,11.80
2012,04,22,10,16,11.80
2012,04,22,10,17,11.80
2012,04,22,10,18,11.90
2012,04,22,10,19,11.90
2012,04,22,10,20,11.90
2012,04,22,10,21,11.90
2012,04,22,10,22,12.00
2012,04,22,10,23,12.00
2012,04,22,10,24,12.10
2012,04,22,10,25,12.10
2012,04,22,10,26,12.10
2012,04,22,10,27,12.10
2012,04,22,10,28,12.20
2012,04,22,10,29,12.20
2012,04,22,10,30,12.30
2012,04,22,10,31,12.30
2012,04,22,10,32,12.30
2012,04,22,10,33,12.40
2012,04,22,10,34,12.40
2012,04,22,10,35,12.50
2012,04,22,10,36,12.50
2012,04,22,10,37,12.60
2012,04,22,10,38,12.60
2012,04,22,10,39,12.70
2012,04,22,10,40,12.70
2012,04,22,10,41,12.70
2012,04,22,10,42,12.80
2012,04,22,10,43,12.80
2012,04,22,10,44,12.90
2012,04,22,10,45,12.90
2012,04,22,10,46,13.00
2012,04,22,10,47,13.00
2012,04,22,10,48,13.10
2012,04,22,10,49,13.10
2012,04,22,10,50,13.20
2012,04,22,10,51,13.20
2012,04,22,10,52,13.30
2012,04,22,10,53,13.30
2012,04,22,10,54,13.30
2012,04,22,10,55,13.30
2012,04,22,10,56,13.30
2012,04,22,10,57,13.30
2012,04,22,10,58,13.20
2012,04,22,10,59,13.20
2012,04,22,11,00,13.20
2012,04,22,11,01,13.20
2012,04,22,11,02,13.20
2012,04,22,11,03,13.30
2012,04,22,11,04,13.30
2012,04,22,11,05,13.30
2012,04,22,11,06,13.30
2012,04,22,11,07,13.40
2012,04,22,11,08,13.40
2012,04,22,11,09,13.40
2012,04,22,11,10,13.40
2012,04,22,11,11,13.50
2012,04,22,11,12,13.50
2012,04,22,11,13,13.50
2012,04,22,11,14,13.50
2012,04,22,11,15,13.50
2012,04,22,11,16,13.50
2012,04,22,11,17,13.50
2012,04,22,11,18,13.50
2012,04,22,11,19,13.50
2012,04,22,11,20,13.60
2012,04,22,11,21,13.70
2012,04,22,11,22,13.70
2012,04,22,11,23,13.80
2012,04,22,11,24,13.80
2012,04,22,11,25,13.90
2012,04,22,11,26,13.90
2012,04,22,11,27,14.00
2012,04,22,11,28,14.00
2012,04,22,11,29,14.10
2012,04,22,11,30,14.10
2012,04,22,11,31,14.10
2012,04,22,11,32,14.10
2012,04,22,11,33,14.00
2012,04,22,11,34,14.00
2012,04,22,11,35,13.90
2012,04,22,11,36,13.90
2012,04,22,11,37,13.90
2012,04,22,11,38,13.80
2012,04,22,11,39,13.80
2012,04,22,11,40,13.90
2012,04,22,11,41,13.90
2012,04,22,11,42,14.00
2012,04,22,11,43,14.00
2012,04,22,11,44,14.10
2012,04,22,11,45,14.00
2012,04,22,11,46,14.10
2012,04,22,11,47,14.10
2012,04,22,11,48,14.10
2012,04,22,11,49,14.10
2012,04,22,11,50,14.10
2012,04,22,11,51,14.10
2012,04,22,11,52,14.20
2012,04,22,11,53,14.20
2012,04,22,11,54,14.20
2012,04,22,11,55,14.10
2012,04,22,11,56,14.10
2012,04,22,11,57,14.10
2012,04,22,11,58,14.00
2012,04,22,11,59,14.00
2012,04,22,12,00,13.90
2012,04,22,12,01,13.90
2012,04,22,12,02,13.90
2012,04,22,12,03,13.90
2012,04,22,12,04,14.00
2012,04,22,12,05,14.10
2012,04,22,12,06,14.10
2012,04,22,12,07,14.10
2012,04,22,12,08,14.10
2012,04,22,12,09,14.20
2012,04,22,12,10,14.20
2012,04,22,12,11,14.30
2012,04,22,12,12,14.30
2012,04,22,12,13,14.30
2012,04,22,12,14,14.30
2012,04,22,12,15,14.30
2012,04,22,12,16,14.30
2012,04,22,12,17,14.40
2012,04,22,12,18,14.40
2012,04,22,12,19,14.40
2012,04,22,12,20,14.40
2012,04,22,12,21,14.40
2012,04,22,12,22,14.40
2012,04,22,12,23,14.30
2012,04,22,12,24,14.30
2012,04,22,12,25,14.30
2012,04,22,12,26,14.30
2012,04,22,12,27,14.30
2012,04,22,12,28,14.30
2012,04,22,12,29,14.30
2012,04,22,12,30,14.30
2012,04,22,12,31,14.30
2012,04,22,12,32,14.40
2012,04,22,12,33,14.50
2012,04,22,12,34,14.60
2012,04,22,12,35,14.60
2012,04,22,12,36,14.70
2012,04,22,12,37,14.70
2012,04,22,12,38,14.70
2012,04,22,12,39,14.70
2012,04,22,12,40,14.80
2012,04,22,12,41,14.80
2012,04,22,12,42,14.80
2012,04,22,12,43,14.80
2012,04,22,12,44,14.80
2012,04,22,12,45,14.80
2012,04,22,12,46,14.80
2012,04,22,12,47,14.90
2012,04,22,12,48,15.00
2012,04,22,12,49,15.00
2012,04,22,12,50,15.10
2012,04,22,12,51,15.20
2012,04,22,12,52,15.30
2012,04,22,12,53,15.30
2012,04,22,12,54,15.30
2012,04,22,12,55,15.40
2012,04,22,12,56,15.40
2012,04,22,12,57,15.50
2012,04,22,12,58,15.50
2012,04,22,12,59,15.50
2012,04,22,13,00,15.50
2012,04,22,13,01,15.50
2012,04,22,13,02,15.50
2012,04,22,13,03,15.50
2012,04,22,13,04,15.50
2012,04,22,13,05,15.50
2012,04,22,13,06,15.50
2012,04,22,13,07,15.60
2012,04,22,13,08,15.60
2012,04,22,13,09,15.60
2012,04,22,13,10,15.50
2012,04,22,13,11,15.50
2012,04,22,13,12,15.40
2012,04,22,13,13,15.40
2012,04,22,13,14,15.40
2012,04,22,13,15,15.40
2012,04,22,13,16,15.40
2012,04,22,13,17,15.50
2012,04,22,13,18,15.50
2012,04,22,13,19,15.60
2012,04,22,13,20,15.60
2012,04,22,13,21,15.60
2012,04,22,13,22,15.70
2012,04,22,13,23,15.80
2012,04,22,13,24,15.80
2012,04,22,13,25,15.70
2012,04,22,13,26,15.70
2012,04,22,13,27,15.70
2012,04,22,13,28,15.80
2012,04,22,13,29,15.80
2012,04,22,13,30,15.80
2012,04,22,13,31,15.80
2012,04,22,13,32,15.80
2012,04,22,13,33,15.80
2012,04,22,13,34,15.80
2012,04,22,13,35,15.80
2012,04,22,13,36,15.80
2012,04,22,13,37,15.80
2012,04,22,13,38,15.80
2012,04,22,13,39,15.80
2012,04,22,13,40,15.90
2012,04,22,13,41,15.90
2012,04,22,13,42,15.90
2012,04,22,13,43,15.90
2012,04,22,13,44,15.90
2012,04,22,13,45,15.90
2012,04,22,13,46,15.90
2012,04,22,13,47,16.00
2012,04,22,13,48,16.10
2012,04,22,13,49,16.10
2012,04,22,13,50,16.20
2012,04,22,13,51,16.20
2012,04,22,13,52,16.20
2012,04,22,13,53,16.10
2012,04,22,13,54,16.10
2012,04,22,13,55,16.10
2012,04,22,13,56,16.10
2012,04,22,13,57,16.10
2012,04,22,13,58,16.10
2012,04,22,13,59,16.10
2012,04,22,14,00,16.20
2012,04,22,14,01,16.20
2012,04,22,14,02,16.30
2012,04,22,14,03,16.30
2012,04,22,14,04,16.20
2012,04,22,14,05,16.30
2012,04,22,14,06,16.30
2012,04,22,14,07,16.30
2012,04,22,14,08,16.20
2012,04,22,14,09,16.20
2012,04,22,14,10,16.20
2012,04,22,14,11,16.20
2012,04,22,14,12,16.20
2012,04,22,14,13,16.20
2012,04,22,14,14,16.20
2012,04,22,14,15,16.20
2012,04,22,14,16,16.20
2012,04,22,14,17,16.20
2012,04,22,14,18,16.20
2012,04,22,14,19,16.30
2012,04,22,14,20,16.30
2012,04,22,14,21,16.40
2012,04,22,14,22,16.40
2012,04,22,14,23,16.40
2012,04,22,14,24,16.50
2012,04,22,14,25,16.50
2012,04,22,14,26,16.60
2012,04,22,14,27,16.60
2012,04,22,14,28,16.70
2012,04,22,14,29,16.80
2012,04,22,14,30,16.80
2012,04,22,14,31,16.80
2012,04,22,14,32,16.90
2012,04,22,14,33,16.90
2012,04,22,14,34,16.90
2012,04,22,14,35,16.80
2012,04,22,14,36,16.80
2012,04,22,14,37,16.80
2012,04,22,14,38,16.80
2012,04,22,14,39,16.80
2012,04,22,14,40,16.80
2012,04,22,14,41,16.80
2012,04,22,14,42,16.90
2012,04,22,14,43,16.90
2012,04,22,14,44,16.90
2012,04,22,14,45,16.90
2012,04,22,14,46,17.00
2012,04,22,14,47,17.00
2012,04,22,14,48,17.00
2012,04,22,14,49,17.10
2012,04,22,14,50,17.10
2012,04,22,14,51,17.10
2012,04,22,14,52,17.20
2012,04,22,14,53,17.20
2012,04,22,14,54,17.20
2012,04,22,14,55,17.20
2012,04,22,14,56,17.20
2012,04,22,14,57,17.20
2012,04,22,14,58,17.20
2012,04,22,14,59,17.10
2012,04,22,15,00,16.90
2012,04,22,15,01,16.80
2012,04,22,15,02,16.70
2012,04,22,15,03,16.50
2012,04,22,15,04,16.40
2012,04,22,15,05,16.30
2012,04,22,15,06,16.20
2012,04,22,15,07,16.10
2012,04,22,15,08,16.00
2012,04,22,15,09,15.90
2012,04,22,15,10,15.90
2012,04,22,15,11,15.90
2012,04,22,15,12,15.90
2012,04,22,15,13,16.00
2012,04,22,15,14,16.00
2012,04,22,15,15,16.00
2012,04,22,15,16,15.90
2012,04,22,15,17,15.90
2012,04,22,15,18,15.80
2012,04,22,15,19,15.80
2012,04,22,15,20,15.80
2012,04,22,15,21,15.80
2012,04,22,15,22,15.90
2012,04,22,15,23,15.90
2012,04,22,15,24,16.00
2012,04,22,15,25,16.00
2012,04,22,15,26,15.90
2012,04,22,15,27,15.90
2012,04,22,15,28,15.80
2012,04,22,15,29,15.80
2012,04,22,15,30,15.80
2012,04,22,15,31,15.70
2012,04,22,15,32,15.70
2012,04,22,15,33,15.70
2012,04,22,15,34,15.70
2012,04,22,15,35,15.70
2012,04,22,15,36,15.60
2012,04,22,15,37,15.60
2012,04,22,15,38,15.70
2012,04,22,15,39,15.70
2012,04,22,15,40,15.70
2012,04,22,15,41,15.80
2012,04,22,15,42,15.80
2012,04,22,15,43,15.80
2012,04,22,15,44,15.80
2012,04,22,15,45,15.80
2012,04,22,15,46,15.80
2012,04,22,15,47,15.80
2012,04,22,15,48,15.90
2012,04,22,15,49,15.90
2012,04,22,15,50,15.90
2012,04,22,15,51,15.90
2012,04,22,15,52,15.90
2012,04,22,15,53,15.90
2012,04,22,15,54,15.90
2012,04,22,15,55,16.00
2012,04,22,15,56,16.00
2012,04,22,15,57,16.10
2012,04,22,15,58,16.10
2012,04,22,15,59,16.20
2012,04,22,16,00,16.20
2012,04,22,16,01,16.30
2012,04,22,16,02,16.30
2012,04,22,16,03,16.30
2012,04,22,16,04,16.30
2012,04,22,16,05,16.40
2012,04,22,16,06,16.40
2012,04,22,16,07,16.40
2012,04,22,16,08,16.40
2012,04,22,16,09,16.40
2012,04,22,16,10,16.50
2012,04,22,16,11,16.50
2012,04,22,16,12,16.50
2012,04,22,16,13,16.40
2012,04,22,16,14,16.40
2012,04,22,16,15,16.40
2012,04,22,16,16,16.40
2012,04,22,16,17,16.40
2012,04,22,16,18,16.40
2012,04,22,16,19,16.40
2012,04,22,16,20,16.40
2012,04,22,16,21,16.50
2012,04,22,16,22,16.50
2012,04,22,16,23,16.60
2012,04,22,16,24,16.60
2012,04,22,16,25,16.60
2012,04,22,16,26,16.60
2012,04,22,16,27,16.70
2012,04,22,16,28,16.70
2012,04,22,16,29,16.70
2012,04,22,16,30,16.70
2012,04,22,16,31,16.70
2012,04,22,16,32,16.60
2012,04,22,16,33,16.40
2012,04,22,16,34,16.30
2012,04,22,16,35,16.20
2012,04,22,16,36,16.10
2012,04,22,16,37,16.00
2012,04,22,16,38,16.00
2012,04,22,16,39,15.90
2012,04,22,16,40,15.90
2012,04,22,16,41,15.90
2012,04,22,16,42,15.90
2012,04,22,16,43,15.90
2012,04,22,16,44,15.90
2012,04,22,16,45,15.90
2012,04,22,16,46,15.90
2012,04,22,16,47,16.00
2012,04,22,16,48,16.00
2012,04,22,16,49,16.00
2012,04,22,16,50,16.00
2012,04,22,16,51,16.00
2012,04,22,16,52,16.00
2012,04,22,16,53,16.00
2012,04,22,16,54,16.00
2012,04,22,16,55,16.00
2012,04,22,16,56,16.00
2012,04,22,16,57,16.00
2012,04,22,16,58,16.00
2012,04,22,16,59,16.00
2012,04,22,17,00,16.00
2012,04,22,17,01,16.10
2012,04,22,17,02,16.10
2012,04,22,17,03,16.20
2012,04,22,17,04,16.20
2012,04,22,17,05,16.30
2012,04,22,17,06,16.30
2012,04,22,17,07,16.30
2012,04,22,17,08,16.30
2012,04,22,17,09,16.30
2012,04,22,17,10,16.30
2012,04,22,17,11,16.30
2012,04,22,17,12,16.30
2012,04,22,17,13,16.20
2012,04,22,17,14,16.20
2012,04,22,17,15,16.10
2012,04,22,17,16,16.10
2012,04,22,17,17,16.10
2012,04,22,17,18,16.10
2012,04,22,17,19,16.10
2012,04,22,17,20,16.10
2012,04,22,17,21,16.10
2012,04,22,17,22,16.10
2012,04,22,17,23,16.10
2012,04,22,17,24,16.10
2012,04,22,17,25,16.10
2012,04,22,17,26,16.00
2012,04,22,17,27,15.90
2012,04,22,17,28,15.80
2012,04,22,17,29,15.70
2012,04,22,17,30,15.60
2012,04,22,17,31,15.50
2012,04,22,17,32,15.30
2012,04,22,17,33,15.30
2012,04,22,17,34,15.30
2012,04,22,17,35,15.30
2012,04,22,17,36,15.30
2012,04,22,17,37,15.30
2012,04,22,17,38,15.30
2012,04,22,17,39,15.20
2012,04,22,17,40,15.20
2012,04,22,17,41,15.10
2012,04,22,17,42,15.10
2012,04,22,17,43,15.10